Tracking 19709 objects as of 18-Jun-2019
HD Live streaming from Space Station
objects crossing your sky now

OPS 9323 (IDSCS 10)

Track OPS 9323 (IDSCS 10) now!
OPS 9323 (IDSCS 10) is classified as:


NORAD ID: 2650
Int'l Code: 1967-003C
Perigee: 33,558.1 km
Apogee: 33,846.8 km
Inclination: 3.7 °
Period: 1,330.6 minutes
Semi major axis: 40073 km
RCS: 0.003 m2 (small)
Launch date: January 18, 1967
Source: United States (US)
Launch site: AIR FORCE EASTERN TEST RANGE (AFETR)
aabbcc
Your satellite tracking list
Your tracking list is empty




NASA's NSSDC Master Catalog

Two Line Element Set (TLE):
1  2650U 67003C   19169.14930066 -.00000123  00000-0  00000+0 0  9990
2  2650   3.6743  57.9771 0036011  42.6687 122.3346  1.08222551112773
Source of the keplerian elements: AFSPC